This is the latest recevied weather packets stored in our database for station/object VE6HFD-WX. If no packets are shown the sender has not sent any weather packets the latest 10 day(s).
| Time | Temp. | Humidity | Pressure | Rain* | Wind** | Luminosity | Snow |
|---|---|---|---|---|---|---|---|
| 1777406813 | 10° C | 41% | 1018.3 hPa | 0 mm | - | - | - |
| 1777406483 | 9.44° C | 41% | 1018.3 hPa | 0 mm | - | - | - |
| 1777406183 | 8.89° C | 43% | 1018.4 hPa | 0 mm | - | - | - |
| 1777405853 | 9.44° C | 43% | 1018.3 hPa | 0 mm | - | - | - |
| 1777405553 | 10° C | 43% | 1018.3 hPa | 0 mm | - | - | - |
| 1777405223 | 10.56° C | 40% | 1018.4 hPa | 0 mm | - | - | - |
| 1777404893 | 9.44° C | 44% | 1018.3 hPa | 0 mm | - | - | - |
| 1777404280 | 8.89° C | 44% | 1018.3 hPa | 0 mm | - | - | - |
| 1777403980 | 8.89° C | 43% | 1018.3 hPa | 0 mm | - | - | - |
| 1777403680 | 8.89° C | 43% | 1018.3 hPa | 0 mm | - | - | - |
| 1777403380 | 8.89° C | 43% | 1018.3 hPa | 0 mm | - | - | - |
| 1777403050 | 8.89° C | 44% | 1018.3 hPa | 0 mm | - | - | - |
| 1777402720 | 8.33° C | 44% | 1018.3 hPa | 0 mm | - | - | - |
| 1777402390 | 8.33° C | 42% | 1018.3 hPa | 0 mm | - | - | - |
| 1777402090 | 8.33° C | 45% | 1018.3 hPa | 0 mm | - | - | - |
| 1777401760 | 7.78° C | 43% | 1018.3 hPa | 0 mm | - | - | - |
| 1777401460 | 7.78° C | 44% | 1018.3 hPa | 0 mm | - | - | - |
| 1777401160 | 7.78° C | 44% | 1018.2 hPa | 0 mm | - | - | - |
| 1777400860 | 7.78° C | 44% | 1018.3 hPa | 0 mm | - | - | - |
| 1777400530 | 7.78° C | 43% | 1018.3 hPa | 0 mm | - | - | - |
| 1777400230 | 7.78° C | 44% | 1018.4 hPa | 0 mm | - | - | - |
| 1777399900 | 7.22° C | 45% | 1018.3 hPa | 0 mm | - | - | - |
| 1777399600 | 7.22° C | 45% | 1018.3 hPa | 0 mm | - | - | - |
| 1777399270 | 7.22° C | 45% | 1018.4 hPa | 0 mm | - | - | - |
| 1777398940 | 7.22° C | 44% | 1018.3 hPa | 0 mm | - | - | - |
* Rain latest hour (hover to see other rain measurements)
** Current wind speed in m/s (hover to see current wind gust speed)